Location: Balsareny
(41.8670°N, 1.8830°E)
Time: 05:49:07
(UTC+02:00)

Tiangong - Pass Details

Date: 28 June 2021
Orbit: 373 x 386 km, 41.5° (Epoch: 28 July)

Event Time Altitude Azimuth Distance (km) Brightness Sun altitude
Exits shadow 04:41:20 20° 271° (W) 941 2.7 -14.4°
Maximum altitude 04:43:20 74° 188° (S) 395 0.9 -14.2°
Drops below altitude 10° 04:46:27 10° 104° (ESE) 1,388 4.2 -13.8°
Sets 04:48:32 0° 102° (ESE) 2,242 5.3 -13.6°
